Location: Chervonnoye
(48.6000°N, 34.4000°E)
Time: 08:26:18
(UTC+00:00)

FENGYUN 1C DEB - Visible Passes

Search period start: 21 June 2021 00:00
Search period end: 01 July 2021 00:00
Orbit: 799 x 1012 km, 98.4° (Epoch: 20 June)

Date Brightness Start Highest point End Pass type
(mag) Time Alt. Az. Time Alt. Az. Time Alt. Az.
21 Jun ? 00:07:51 10° NNE 00:13:20 45° E 00:18:30 10° S visible
22 Jun ? 00:12:09 10° NNE 00:17:40 49° E 00:22:52 10° S visible
23 Jun ? 00:16:26 10° NNE 00:21:59 53° E 00:27:14 10° S visible
24 Jun ? 00:20:45 10° NNE 00:26:19 57° E 00:31:35 10° S visible
25 Jun ? 00:25:03 10° NNE 00:30:38 62° E 00:35:55 10° S visible
26 Jun ? 00:29:21 10° NNE 00:34:57 68° ESE 00:40:14 10° S visible
26 Jun ? 22:54:52 10° ENE 22:56:16 11° E 22:57:38 10° E visible
27 Jun ? 00:33:40 10° NNE 00:39:15 73° ESE 00:44:33 10° S visible
27 Jun ? 22:58:36 10° ENE 23:00:39 12° E 23:02:39 10° ESE visible
28 Jun ? 00:37:58 10° NNE 00:43:34 79° ESE 00:48:51 10° S visible
28 Jun ? 23:02:32 10° ENE 23:05:02 13° E 23:07:29 10° ESE visible
29 Jun ? 00:42:18 10° NNE 00:47:51 86° ESE 00:53:09 10° SSW visible
29 Jun ? 23:06:32 10° NE 23:09:24 14° E 23:12:13 10° ESE visible
30 Jun ? 00:46:37 10° NNE 00:52:09 88° WNW 00:57:26 10° SSW visible
30 Jun ? 23:10:36 10° NE 23:13:46 16° E 23:16:54 10° ESE visible
